GW3957 Weather Reports


Display with metric or nautical units.
time (UTC)temp
F
wind
direction
speed
MPH
gust
MPH
rain 1hr
in
rain 24hr
in
rain mn
in
humidity
%
barometer
mb
20240520064644 55 113 0.0 0.0 0.00 0.00 0.00 99 1020.2
20240520064143 55 113 0.0 0.0 0.00 0.00 0.00 99 1020.1
20240520063642 55 167 0.0 3.0 0.00 0.00 0.00 99 1020.2
20240520063140 55 38 0.0 1.0 0.00 0.00 0.00 99 1020.1
20240520062639 55 98 0.0 0.0 0.00 0.00 0.00 99 1020.2
20240520062137 55 49 0.0 1.0 0.00 0.00 0.00 99 1020.1
20240520061633 55 96 0.0 1.0 0.00 0.00 0.00 99 1020.2
20240520061131 55 60 0.0 1.0 0.00 0.00 0.00 99 1020.2
20240520060630 55 96 0.0 1.0 0.00 0.00 0.00 99 1020.2
20240520060128 55 120 0.0 1.0 0.00 0.00 0.00 99 1020.3
20240520055628 55 115 0.0 0.0 0.00 0.00 0.00 99 1020.3
20240520055126 55 107 0.0 0.0 0.00 0.00 0.00 99 1020.3
20240520054624 55 57 3.0 3.0 0.00 0.00 0.00 99 1020.1
20240520054123 55 89 0.0 0.0 0.00 0.00 0.00 99 1020.0
20240520053623 55 89 0.0 0.0 0.00 0.00 0.00 99 1020.0
20240520053122 55 89 0.0 0.0 0.00 0.00 0.00 99 1019.9
20240520052621 55 89 0.0 0.0 0.00 0.00 0.00 99 1019.9
20240520052121 55 89 0.0 1.0 0.00 0.00 0.00 99 1020.1
20240520051619 55 89 0.0 1.0 0.00 0.00 0.00 98 1019.9
20240520051117 56 89 0.0 1.0 0.00 0.00 0.00 98 1020.1
20240520050616 56 89 1.0 1.0 0.00 0.00 0.00 98 1020.1
20240520050116 56 89 0.0 1.0 0.00 0.00 0.00 98 1020.1
20240520045614 56 89 0.0 1.0 0.00 0.00 0.00 97 1020.2
20240520045113 56 90 0.0 1.0 0.00 0.00 0.00 97 1020.3
20240520044612 56 118 0.0 0.0 0.00 0.00 0.00 97 1020.3
20240520044110 56 146 0.0 1.0 0.00 0.00 0.00 97 1020.2
20240520043609 56 146 0.0 1.0 0.00 0.00 0.00 97 1020.3
20240520043108 57 147 0.0 2.0 0.00 0.00 0.00 96 1020.3
20240520042606 57 253 0.0 0.0 0.00 0.00 0.00 96 1020.4
20240520042104 57 254 0.0 2.0 0.00 0.00 0.00 96 1020.4
20240520041603 57 119 0.0 0.0 0.00 0.00 0.00 96 1020.5
20240520041103 57 119 0.0 1.0 0.00 0.00 0.00 97 1020.6
20240520040603 57 119 0.0 1.0 0.00 0.00 0.00 96 1020.6
20240520040102 57 119 0.0 1.0 0.00 0.00 0.00 96 1020.7
20240520035601 57 119 0.0 0.0 0.00 0.00 0.00 96 1020.5
20240520035101 57 120 0.0 1.0 0.00 0.00 0.00 96 1020.4
20240520034559 57 116 0.0 1.0 0.00 0.00 0.00 96 1020.6
20240520034057 57 116 0.0 1.0 0.00 0.00 0.00 96 1020.6
20240520033558 57 116 0.0 0.0 0.00 0.00 0.00 96 1020.5
20240520033056 57 165 1.0 1.0 0.00 0.00 0.00 96 1020.9
20240520032555 57 122 0.0 0.0 0.00 0.00 0.00 96 1020.9
20240520032055 57 122 0.0 0.0 0.00 0.00 0.00 96 1020.9
20240520031553 58 122 0.0 0.0 0.00 0.00 0.00 96 1020.7
20240520031049 58 122 0.0 0.0 0.00 0.00 0.00 95 1021.1
20240520030548 58 122 0.0 0.0 0.00 0.00 0.00 96 1021.0
20240520030047 58 122 0.0 0.0 0.00 0.00 0.00 96 1021.0
20240520025547 58 122 0.0 1.0 0.00 0.00 0.00 96 1020.9
20240520025045 58 122 0.0 0.0 0.00 0.00 0.00 95 1020.9
20240520024544 58 122 0.0 1.0 0.00 0.00 0.00 96 1020.9
20240520024044 58 122 0.0 1.0 0.00 0.00 0.00 95 1020.9
20240520023544 58 122 1.0 1.0 0.00 0.00 0.00 96 1021.1
20240520023042 58 123 1.0 2.0 0.00 0.00 0.00 96 1021.1
20240520022542 57 290 0.0 0.0 0.00 0.00 0.00 98 1021.1
20240520022040 57 291 0.0 0.0 0.00 0.00 0.00 98 1020.7
20240520021540 57 291 0.0 0.0 0.00 0.00 0.00 98 1020.9
20240520021038 57 291 0.0 0.0 0.00 0.00 0.00 97 1021.0
20240520020537 57 291 0.0 0.0 0.00 0.00 0.00 97 1020.7
20240520020035 57 291 0.0 0.0 0.00 0.00 0.00 97 1021.0
20240520015536 57 291 0.0 0.0 0.00 0.00 0.00 97 1020.7
20240520015035 57 290 1.0 1.0 0.00 0.00 0.00 97 1020.7
20240520014535 57 318 0.0 0.0 0.00 0.00 0.00 97 1020.6
20240520014034 57 318 0.0 0.0 0.00 0.00 0.00 97 1020.6
20240520013534 57 318 0.0 0.0 0.00 0.00 0.00 97 1020.6
20240520013034 57 318 0.0 0.0 0.00 0.00 0.00 96 1020.4
20240520012532 57 318 0.0 0.0 0.00 0.00 0.00 96 1020.3
20240520012030 58 318 0.0 0.0 0.00 0.00 0.00 96 1020.3
20240520011529 58 317 0.0 0.0 0.00 0.00 0.00 96 1020.1
20240520011029 58 317 0.0 0.0 0.00 0.00 0.00 96 1020.0
20240520010527 58 318 0.0 0.0 0.00 0.00 0.00 95 1020.0
20240520010026 58 317 0.0 0.0 0.00 0.00 0.00 94 1020.0
20240520005525 59 317 0.0 0.0 0.00 0.00 0.00 94 1019.9
20240520005024 59 317 0.0 0.0 0.00 0.00 0.00 93 1019.9
20240520004522 60 317 0.0 0.0 0.00 0.00 0.00 92 1019.9
20240520004021 60 317 0.0 0.0 0.00 0.00 0.00 91 1019.9
20240520003521 60 317 0.0 0.0 0.00 0.00 0.00 91 1019.7
20240520003020 61 317 0.0 0.0 0.00 0.00 0.00 91 1019.9
20240520002519 61 317 0.0 0.0 0.00 0.00 0.00 89 1019.9
20240520002018 62 317 0.0 0.0 0.00 0.00 0.00 88 1019.8
20240520001517 62 317 0.0 0.0 0.00 0.00 0.00 88 1019.9
20240520001016 63 317 0.0 0.0 0.00 0.00 0.00 87 1019.9
20240520000515 63 317 0.0 0.0 0.00 0.00 0.00 85 1019.7
20240520000014 64 317 0.0 0.0 0.00 0.00 0.00 84 1019.9
20240519235512 64 317 0.0 0.0 0.00 0.00 0.00 84 1019.9
20240519235012 64 317 0.0 0.0 0.00 0.00 0.00 81 1019.8
20240519234510 64 317 0.0 0.0 0.00 0.00 0.00 82 1019.6
20240519234009 64 317 0.0 1.0 0.00 0.00 0.00 83 1019.7
20240519233509 64 309 0.0 1.0 0.00 0.00 0.00 82 1019.8
20240519233008 65 339 0.0 0.0 0.00 0.00 0.00 82 1019.9
20240519232507 65 339 0.0 0.0 0.00 0.00 0.00 80 1020.0
20240519232006 65 339 0.0 0.0 0.00 0.00 0.00 81 1019.8
20240519231504 66 339 0.0 0.0 0.00 0.00 0.00 79 1019.8
20240519231004 66 339 0.0 0.0 0.00 0.00 0.00 80 1019.9
20240519230503 66 339 0.0 0.0 0.00 0.00 0.00 79 1019.7
20240519230001 68 339 0.0 0.0 0.00 0.00 0.00 76 1019.7
20240519225500 68 339 0.0 0.0 0.00 0.00 0.00 77 1019.7
20240519224959 69 339 0.0 1.0 0.00 0.00 0.00 74 1019.5
20240519224459 70 339 0.0 1.0 0.00 0.00 0.00 66 1019.6
20240519223958 71 341 0.0 0.0 0.00 0.00 0.00 68 1019.5
20240519223455 71 301 0.0 4.0 0.00 0.00 0.00 63 1019.4
20240519222954 72 26 1.0 3.0 0.00 0.00 0.00 61 1019.7
20240519222454 72 296 2.0 2.0 0.00 0.00 0.00 61 1019.6
20240519221952 71 325 1.0 1.0 0.00 0.00 0.00 62 1019.6
20240519221452 71 313 0.0 1.0 0.00 0.00 0.00 67 1019.6
20240519220950 71 313 0.0 1.0 0.00 0.00 0.00 63 1019.5
20240519220449 71 313 1.0 2.0 0.00 0.00 0.00 62 1019.3
20240519215948 72 327 2.0 2.0 0.00 0.00 0.00 60 1019.4
20240519215448 73 343 2.0 6.0 0.00 0.00 0.00 58 1019.4
20240519214947 73 306 2.0 3.0 0.00 0.00 0.00 55 1019.1
20240519214445 74 302 4.0 7.0 0.00 0.00 0.00 55 1019.3
20240519213944 74 51 1.0 4.0 0.00 0.00 0.00 57 1019.2
20240519213444 74 285 5.0 6.0 0.00 0.00 0.00 55 1019.3
20240519212943 74 54 0.0 7.0 0.00 0.00 0.00 58 1019.2
20240519212443 75 305 3.0 4.0 0.00 0.00 0.00 51 1019.2
20240519211942 75 318 1.0 3.0 0.00 0.00 0.00 51 1019.3
20240519211441 74 160 2.0 2.0 0.00 0.00 0.00 54 1019.1
20240519210940 74 56 0.0 1.0 0.00 0.00 0.00 59 1019.2
20240519210439 74 313 1.0 1.0 0.00 0.00 0.00 53 1019.2
20240519205938 74 336 3.0 3.0 0.00 0.00 0.00 55 1018.8
20240519205437 72 67 1.0 2.0 0.00 0.00 0.00 56 1019.1
20240519204936 71 51 1.0 1.0 0.00 0.00 0.00 61 1019.2
20240519204436 73 312 3.0 3.0 0.00 0.00 0.00 56 1019.1
20240519203934 72 204 0.0 1.0 0.00 0.00 0.00 60 1019.3
20240519203432 71 305 1.0 2.0 0.00 0.00 0.00 59 1019.0
20240519202931 73 296 3.0 3.0 0.00 0.00 0.00 55 1019.0
20240519202431 73 304 1.0 4.0 0.00 0.00 0.00 58 1018.7
20240519201930 72 288 0.0 2.0 0.00 0.00 0.00 58 1018.8
20240519201428 72 337 0.0 4.0 0.00 0.00 0.00 60 1018.7
20240519200925 72 336 1.0 7.0 0.00 0.00 0.00 59 1018.6
20240519200425 74 12 1.0 3.0 0.00 0.00 0.00 56 1018.7
20240519195923 74 26 1.0 1.0 0.00 0.00 0.00 63 1018.6
20240519195422 74 5 1.0 3.0 0.00 0.00 0.00 57 1018.7
20240519194920 73 163 1.0 2.0 0.00 0.00 0.00 60 1018.6
20240519194419 70 310 1.0 2.0 0.00 0.00 0.00 63 1019.0
20240519193917 71 286 3.0 3.0 0.00 0.00 0.00 61 1019.1
20240519193416 71 84 0.0 1.0 0.00 0.00 0.00 61 1018.8
20240519192915 71 323 2.0 4.0 0.00 0.00 0.00 61 1019.0
20240519192414 72 295 2.0 2.0 0.00 0.00 0.00 60 1019.1
20240519191913 71 309 2.0 2.0 0.00 0.00 0.00 64 1019.0
20240519191412 71 335 0.0 1.0 0.00 0.00 0.00 61 1018.8
20240519190911 71 281 4.0 4.0 0.00 0.00 0.00 60 1018.8
20240519190410 71 147 2.0 3.0 0.00 0.00 0.00 59 1019.0
20240519185909 71 103 0.0 1.0 0.00 0.00 0.00 58 1018.7
20240519185408 69 278 3.0 6.0 0.00 0.00 0.00 64 1019.1
20240519184858 70 287 3.0 4.0 0.00 0.00 0.00 64 1019.1
20240519184356 69 307 1.0 7.0 0.00 0.00 0.00 64 1019.1
20240519183855 69 327 1.0 2.0 0.00 0.00 0.00 64 1019.0
20240519183354 70 185 2.0 3.0 0.00 0.00 0.00 64 1019.1
20240519182853 69 318 1.0 2.0 0.00 0.00 0.00 64 1019.4
20240519182352 70 315 3.0 3.0 0.00 0.00 0.00 63 1019.2
20240519181851 69 66 0.0 1.0 0.00 0.00 0.00 66 1019.2
20240519181349 69 341 0.0 2.0 0.00 0.00 0.00 66 1019.2
20240519180848 70 301 0.0 2.0 0.00 0.00 0.00 62 1019.1
20240519180347 70 74 0.0 2.0 0.00 0.00 0.00 61 1019.1
20240519175845 71 290 0.0 3.0 0.00 0.00 0.00 63 1019.2
20240519175343 71 125 2.0 3.0 0.00 0.00 0.00 61 1019.2
20240519174842 69 47 1.0 2.0 0.00 0.00 0.00 63 1019.2
20240519174340 69 312 0.0 1.0 0.00 0.00 0.00 66 1019.2
20240519173840 68 134 1.0 2.0 0.00 0.00 0.00 72 1019.2
20240519173339 68 351 0.0 1.0 0.00 0.00 0.00 66 1019.3
20240519172838 68 351 0.0 0.0 0.00 0.00 0.00 69 1019.4
20240519172337 69 83 0.0 1.0 0.00 0.00 0.00 66 1019.6
20240519171835 68 138 0.0 1.0 0.00 0.00 0.00 67 1019.6
20240519171334 68 98 0.0 1.0 0.00 0.00 0.00 67 1019.4
20240519170833 68 99 1.0 2.0 0.00 0.00 0.00 70 1019.6
20240519170332 68 290 0.0 2.0 0.00 0.00 0.00 68 1019.3
20240519165830 69 30 0.0 1.0 0.00 0.00 0.00 71 1019.5
20240519165329 68 339 1.0 2.0 0.00 0.00 0.00 65 1019.5
20240519164829 68 345 1.0 2.0 0.00 0.00 0.00 71 1019.5
20240519164327 68 154 1.0 2.0 0.00 0.00 0.00 65 1019.6
20240519163827 68 67 0.0 1.0 0.00 0.00 0.00 67 1019.4
20240519163326 69 333 1.0 3.0 0.00 0.00 0.00 66 1019.5
20240519162826 69 159 0.0 1.0 0.00 0.00 0.00 62 1019.5
20240519162324 69 125 1.0 3.0 0.00 0.00 0.00 65 1019.6
20240519161822 67 100 0.0 1.0 0.00 0.00 0.00 67 1019.6
20240519161321 68 86 2.0 3.0 0.00 0.00 0.00 65 1019.7
20240519160819 68 311 0.0 1.0 0.00 0.00 0.00 62 1019.7
20240519160317 68 56 0.0 0.0 0.00 0.00 0.00 68 1019.7
20240519155817 67 83 0.0 1.0 0.00 0.00 0.00 70 1019.7
20240519155316 67 309 2.0 3.0 0.00 0.00 0.00 70 1019.6
20240519154816 67 326 1.0 2.0 0.00 0.00 0.00 70 1019.7
20240519154314 69 129 2.0 3.0 0.00 0.00 0.00 65 1019.6
20240519153812 69 16 1.0 2.0 0.00 0.00 0.00 66 1019.5
20240519153312 67 68 1.0 3.0 0.00 0.00 0.00 72 1019.5
20240519152809 67 104 2.0 3.0 0.00 0.00 0.00 71 1019.5
20240519152309 67 306 1.0 2.0 0.00 0.00 0.00 72 1019.5
20240519151810 65 34 1.0 2.0 0.00 0.00 0.00 74 1019.4
20240519151308 66 85 1.0 3.0 0.00 0.00 0.00 76 1019.5
20240519150807 66 120 0.0 1.0 0.00 0.00 0.00 74 1019.5
20240519150307 65 29 1.0 1.0 0.00 0.00 0.00 77 1019.3
20240519145805 64 8 0.0 2.0 0.00 0.00 0.00 77 1019.4
20240519145304 66 312 1.0 4.0 0.00 0.00 0.00 76 1019.5
20240519144805 65 47 0.0 1.0 0.00 0.00 0.00 76 1019.5
20240519144304 64 97 1.0 2.0 0.00 0.00 0.00 78 1019.3
20240519143803 63 322 1.0 3.0 0.00 0.00 0.00 80 1019.4
20240519143302 64 301 1.0 2.0 0.00 0.00 0.00 79 1019.2
20240519142758 64 281 1.0 2.0 0.00 0.00 0.00 80 1019.4
20240519142256 63 9 0.0 1.0 0.00 0.00 0.00 79 1019.5
20240519141755 63 330 0.0 2.0 0.00 0.00 0.00 80 1019.4
20240519141255 64 341 1.0 2.0 0.00 0.00 0.00 81 1019.6
20240519140754 64 63 0.0 1.0 0.00 0.00 0.00 81 1019.5
20240519140254 63 329 0.0 0.0 0.00 0.00 0.00 80 1019.4
20240519135752 65 276 1.0 2.0 0.00 0.00 0.00 78 1019.6
20240519135252 65 147 0.0 2.0 0.00 0.00 0.00 78 1019.6
20240519134751 63 43 0.0 2.0 0.00 0.00 0.00 84 1019.5
20240519134250 63 72 0.0 1.0 0.00 0.00 0.00 84 1019.4
20240519133750 62 89 0.0 2.0 0.00 0.00 0.00 86 1019.4
20240519133249 60 335 0.0 2.0 0.00 0.00 0.00 89 1019.3
20240519132748 59 23 0.0 1.0 0.00 0.00 0.00 91 1019.5
20240519132248 59 78 0.0 2.0 0.00 0.00 0.00 93 1019.6
20240519131746 59 65 0.0 1.0 0.00 0.00 0.00 93 1019.5
20240519131245 58 39 0.0 1.0 0.00 0.00 0.00 94 1019.8
20240519130744 59 72 0.0 1.0 0.00 0.00 0.00 93 1019.7
20240519130242 59 81 1.0 1.0 0.00 0.00 0.00 94 1019.7
20240519125742 58 82 2.0 2.0 0.00 0.00 0.00 93 1019.6
20240519125240 59 174 0.0 2.0 0.00 0.00 0.00 95 1019.6
20240519124738 58 70 0.0 0.0 0.00 0.00 0.00 94 1019.5
20240519124236 58 350 0.0 1.0 0.00 0.00 0.00 95 1019.5
20240519123736 57 88 0.0 1.0 0.00 0.00 0.00 96 1019.8
20240519123235 57 113 0.0 1.0 0.00 0.00 0.00 97 1019.5
20240519122735 56 134 0.0 1.0 0.00 0.00 0.00 99 1019.5
20240519122234 56 80 0.0 1.0 0.00 0.00 0.00 99 1019.6
20240519121732 56 73 0.0 2.0 0.00 0.00 0.00 99 1019.5
20240519121231 56 76 0.0 1.0 0.00 0.00 0.00 99 1019.6
20240519120729 56 102 0.0 1.0 0.00 0.00 0.00 99 1019.4
20240519120227 56 62 0.0 2.0 0.00 0.00 0.00 99 1019.4
20240519115727 55 70 0.0 1.0 0.00 0.00 0.00 99 1019.5
20240519115227 55 103 1.0 2.0 0.00 0.00 0.00 99 1019.4
20240519114726 55 96 0.0 1.0 0.00 0.00 0.00 99 1019.3
20240519114225 55 65 0.0 1.0 0.00 0.00 0.00 99 1019.3
20240519113724 55 98 0.0 1.0 0.00 0.00 0.00 99 1019.2
20240519113223 55 107 0.0 0.0 0.00 0.00 0.00 99 1019.3
20240519112721 55 120 0.0 1.0 0.00 0.00 0.00 99 1019.2
20240519112221 55 105 1.0 2.0 0.00 0.00 0.00 99 1019.3
20240519111719 55 85 1.0 1.0 0.00 0.00 0.00 99 1019.2
20240519111219 55 6 1.0 1.0 0.00 0.00 0.00 99 1019.2
20240519110719 55 20 0.0 1.0 0.00 0.00 0.00 99 1019.0
20240519110219 55 100 0.0 1.0 0.00 0.00 0.00 99 1019.2
20240519105718 55 152 1.0 2.0 0.00 0.00 0.00 99 1018.7
20240519105217 55 72 0.0 1.0 0.00 0.00 0.00 99 1018.8
20240519104715 55 49 0.0 0.0 0.00 0.00 0.00 99 1018.7
20240519104215 55 76 0.0 1.0 0.00 0.00 0.00 99 1018.8
20240519103713 55 67 0.0 2.0 0.00 0.00 0.00 99 1018.7
20240519103211 55 80 0.0 1.0 0.00 0.00 0.00 99 1018.3
20240519102709 56 52 0.0 3.0 0.00 0.00 0.00 99 1018.5
20240519102208 56 57 0.0 2.0 0.00 0.00 0.00 99 1018.4
20240519101707 56 75 2.0 3.0 0.00 0.00 0.00 99 1018.3
20240519101204 56 55 0.0 0.0 0.00 0.00 0.00 99 1018.3
20240519100702 56 86 0.0 1.0 0.00 0.00 0.00 99 1018.3
20240519100202 56 96 0.0 1.0 0.00 0.00 0.00 99 1018.1
20240519095700 56 64 0.0 1.0 0.00 0.00 0.00 99 1018.1
20240519095159 56 79 0.0 0.0 0.00 0.00 0.00 99 1018.1
20240519094658 56 80 0.0 1.0 0.00 0.00 0.00 99 1017.9
20240519094158 56 80 0.0 2.0 0.00 0.00 0.00 99 1018.0
20240519093657 56 84 1.0 2.0 0.00 0.00 0.00 99 1018.1
20240519093156 56 87 0.0 1.0 0.00 0.00 0.00 99 1018.3
20240519092655 56 89 0.0 1.0 0.00 0.00 0.00 99 1018.1
20240519092153 56 107 0.0 1.0 0.00 0.00 0.00 99 1018.1
20240519091652 56 100 0.0 1.0 0.00 0.00 0.00 99 1017.9
20240519091151 55 51 0.0 0.0 0.00 0.00 0.00 99 1018.0
20240519090651 55 51 0.0 0.0 0.00 0.00 0.00 99 1017.8
20240519090149 55 50 0.0 0.0 0.00 0.00 0.00 99 1017.8
20240519085647 55 50 0.0 0.0 0.00 0.00 0.00 99 1017.7
20240519085146 55 50 0.0 0.0 0.00 0.00 0.00 99 1017.9
20240519084645 55 50 0.0 0.0 0.00 0.00 0.00 99 1017.8
20240519084145 55 50 0.0 0.0 0.00 0.00 0.00 99 1017.7
20240519083643 55 50 0.0 0.0 0.00 0.00 0.00 99 1017.7
20240519083143 55 50 0.0 1.0 0.00 0.00 0.00 99 1017.7
20240519082642 55 41 0.0 0.0 0.00 0.00 0.00 99 1017.7
20240519082140 55 42 0.0 1.0 0.00 0.00 0.00 99 1017.6
20240519081640 55 347 0.0 0.0 0.00 0.00 0.00 99 1017.6
20240519081139 55 346 0.0 0.0 0.00 0.00 0.00 99 1017.5
20240519080639 55 310 0.0 1.0 0.00 0.00 0.00 99 1017.6
20240519080139 55 29 0.0 0.0 0.00 0.00 0.00 99 1017.6
20240519075638 55 30 0.0 2.0 0.00 0.00 0.00 99 1017.4
20240519075136 55 81 0.0 1.0 0.00 0.00 0.00 99 1017.6
20240519074635 55 81 0.0 0.0 0.00 0.00 0.00 99 1017.6
20240519074134 55 81 0.0 0.0 0.00 0.00 0.00 99 1017.6
20240519073632 55 81 0.0 0.0 0.00 0.00 0.00 99 1017.7
20240519073130 55 81 0.0 0.0 0.00 0.00 0.00 99 1017.5
20240519072629 55 81 0.0 0.0 0.00 0.00 0.00 99 1017.5
20240519072127 55 81 0.0 0.0 0.00 0.00 0.00 99 1017.4
20240519071627 55 81 0.0 0.0 0.00 0.00 0.00 99 1017.6
20240519071125 55 81 0.0 0.0 0.00 0.00 0.00 99 1017.4
20240519070624 55 81 0.0 0.0 0.00 0.00 0.00 99 1017.5
20240519070124 55 81 0.0 0.0 0.00 0.00 0.00 99 1017.7
20240519065622 55 81 0.0 0.0 0.00 0.00 0.00 99 1017.6
20240519065120 55 82 0.0 0.0 0.00 0.00 0.00 99 1017.6